www.pogodaiklimat.ru

Погода и климат >> Архив погоды >> Россия >> Хабаровский край >> Нелькан


АРХИВ ПОГОДЫ в Нелькане

Время (UTC), дата Ветер
(напр.,м/с)
 
Видим.   Явления Облачность Т
(С)
Тd
(С)
f
(%)
Тe
(С)
Тes
(С)
Комфортность P
(гПа)
Po
(гПа)
Тmin
(С)
Tmax
(С)
R
(мм)
R24
(мм)
S
(см)
00 18.08 СВ 3 50 км 10/0
[As op]
+12.7 +7.1 69 +11 +13 1015.2 977.6 +10.4
03 18.08 В 2 50 км 10/6 1000 м
[Sc As op]
+14.6 +7.9 64 +14 +15 1015.2 977.8
06 18.08 В 2 50 км 10/6 1000 м
[Sc As op]
+14.6 +7.8 64 +14 +15 1014.7 977.3
09 18.08 Ю 1 50 км 10/8 1000 м
[Sc As op]
+14.2 +7.3 63 +15 +15 1015.0 977.5 +14.8
12 18.08 С 1 20 км 10/8 1000 м
[Sc As op]
+12.2 +6.8 70 +12 +12 1015.3 977.6
15 18.08 С 2 20 км 8/6 1000 м
[Sc Ac trans]
+12.0 +6.3 68 +11 +11 1015.4 977.7
18 18.08 С 2 20 км 8/3 1000 м
[Sc Ac trans]
+11.4 +5.8 68 +10 +10 1015.9 978.0
21 18.08 С 2 50 км 9/4 1000 м
[Sc Ac trans]
+11.2 +6.3 72 +10 +10 1017.2 979.2 +11.2
00 19.08 В 1 50 км 8/6 1000 м
[Sc Ac trans]
+14.6 +8.2 65 +15 +17 1016.9 979.5 +11.2
03 19.08 В 2 50 км 8/8 1000 м
[Sc Ac trans]
+17.0 +9.6 62 +17 +20 1016.2 979.0
06 19.08 В 3 50 км 9/8 1000 м
[Sc Ac trans]
+16.4 +9.5 64 +16 +17 1015.5 978.4
09 19.08 В 1 50 км 10/8 1000 м
[Sc As op]
+15.2 +8.3 63 +16 +16 1016.1 978.7 +17.0
12 19.08 СВ 1 20 км 10/8 1000 м
[Sc As op]
+13.4 +7.5 67 +14 +14 1016.7 979.1
15 19.08 С 1 20 км 10/3 1000 м
[Sc Ac trans Cs]
+11.8 +7.2 73 +12 +12 1016.9 979.1
18 19.08 С 2 20 км слаб. морось 10/3 1000 м
[Sc As op]
+10.8 +7.0 77 +10 +10 1017.1 979.1
21 19.08 С 1 50 км {морось} 10/0
[As op]
+10.4 +7.0 79 +10 +10 1017.5 979.5 +10.4 0.3
00 20.08 С 1 50 км {морось} 10/4 1000 м
[Sc Ac trans Cs]
+12.6 +8.8 78 +13 +15 1017.3 979.6
03 20.08 В 2 50 км 9/5
[Sc Ac trans Ci sp]
+17.2 +9.6 61 +18 +21 1016.1 979.1
06 20.08 ЮЗ 2 50 км 10/4 1000 м
[Sc Ac trans Cs]
+17.0 +9.8 63 +17 +19 1016.5 979.3
09 20.08 СВ 1 50 км 10/0
[As op]
+16.2 +9.9 66 +17 +17 1016.9 979.7 +17.2
12 20.08 С 1 20 км 10/0
[As op]
+14.0 +8.2 68 +14 +14 1017.9 980.3
15 20.08 С 2 20 км 10/0
[As op]
+12.9 +7.8 71 +12 +12 1018.3 980.6
18 20.08 С 2 20 км 10/0
[As op]
+12.1 +7.8 75 +11 +11 1018.6 980.8
21 20.08 С 1 50 км 10/0
[As op]
+12.4 +7.5 72 +13 +13 1017.9 980.2 +12.1
00 21.08 С 2 50 км 10/0
[As op]
+14.9 +9.3 69 +15 +16 1018.3 980.9 +12.1
03 21.08 СВ 2 50 км 10/0
[As op]
+16.9 +11.6 71 +17 +19 1017.7 980.5
06 21.08 С 2 50 км 8/0
[Ac trans]
+19.4 +12.3 63 +21 +24 комфорт 1016.0 979.2
09 21.08 СВ 1 50 км 8/5 1000 м
[Sc Ac trans]
+18.5 +11.0 62 +20 +20 1015.9 979.0 +19.4
12 21.08 С 1 20 км 10/0
[As op]
+16.4 +10.0 66 +17 +17 1015.8 978.7
15 21.08 штиль 0 20 км 10/0
[As op]
+14.8 +9.6 71 +15 +15 1016.5 979.1
18 21.08 С 2 20 км 10/0
[As op]
+12.8 +7.7 71 +12 +12 1016.4 978.8
21 21.08 СВ 1 50 км 9/0
[Ac trans]
+12.0 +7.2 72 +12 +12 1017.3 979.5 +12.0
00 22.08 СВ 1 50 км 9/3 1000 м
[Sc Ac trans]
+14.2 +8.9 70 +15 +17 1017.1 979.5 +12.0
03 22.08 ЮВ 1 50 км 8/3 1000 м
[Sc Ac trans]
+17.6 +10.7 64 +19 +23 1016.0 979.0
06 22.08 штиль 0 50 км 10/8 1000 м
[Sc As op]
+18.3 +10.9 62 +19 +19 1014.5 977.7
09 22.08 С 1 50 км 10/0
[Ac As]
+18.0 +11.4 65 +19 +19 1014.3 977.5 +18.5
12 22.08 С 1 20 км 10/0
[Ac As]
+16.1 +9.8 66 +17 +17 1014.9 977.7
15 22.08 штиль 0 20 км 10/0
[As op]
+14.6 +9.4 71 +14 +14 1014.7 977.3
18 22.08 штиль 0 20 км 10/0
[As op]
+13.6 +8.9 73 +13 +13 1014.8 977.3
21 22.08 СВ 1 50 км 10/0
[As op]
+13.0 +8.8 76 +13 +13 1015.3 977.7 +13.0
00 23.08 СВ 1 50 км 9/4 1000 м
[Sc Ac trans]
+14.2 +10.0 76 +15 +17 1015.3 977.9 +13.0
03 23.08 В 1 50 км 6/3 1000 м
[Sc Ac trans]
+19.8 +12.9 64 +23 +29 комфорт 1013.7 977.0
06 23.08 СВ 1 50 км 10/4 1000 м
[Sc Ac trans Cs]
+20.8 +11.7 56 +24 +26 комфорт 1012.2 975.7
09 23.08 С 1 50 км 8/4 1000 м
[Sc Ac trans]
+21.0 +12.8 59 +25 +25 комфорт 1011.6 975.2 +21.0
12 23.08 С 2 20 км 8/0
[Ac trans]
+17.2 +12.3 73 +18 +18 1012.7 975.8
15 23.08 СВ 1 20 км 6/0
[Ac trans]
+14.1 +10.0 76 +14 +14 1013.7 976.3
18 23.08 С 2 20 км 10/0
[Ac trans Cs]
+12.2 +8.8 80 +11 +11 1014.3 976.6
21 23.08 штиль 0 50 км 10/0
[Ac trans Cs]
+11.7 +6.7 71 +11 +12 1014.3 976.6 +11.7
00 24.08 Ю 2 50 км 5/3 1000 м
[Sc Ac trans]
+16.4 +10.8 69 +17 +20 1013.6 976.6 +11.7
03 24.08 Ю 1 50 км 5/3 1000 м
[Cu med, cong Ac trans]
+20.6 +13.1 62 +24 +31 комфорт 1011.8 975.3
06 24.08 ЮВ 1 50 км 3/3 1000 м
[Cu med, cong]
+24.4 +14.1 53 +27 +32 жарко 1009.6 973.7
09 24.08 Ю 1 50 км 4/3 1000 м
[Cu med, cong Ac trans]
+21.6 +12.5 56 +24 +24 комфорт 1008.9 972.7 +24.4
12 24.08 СВ 1 20 км 3/0
[Ac trans]
+16.5 +10.9 69 +17 +17 1009.6 972.7
15 24.08 штиль 0 20 км ясно +11.4 +7.0 74 +11 +11 1010.4 972.9
18 24.08 штиль 0 20 км 4/0
[Ci sp]
+8.5 +5.2 80 +8 +8 1011.0 973.0
21 24.08 штиль 0 50 км 8/1 1000 м
[Sc Ac trans Ci sp]
+7.1 +3.6 78 +6 +7 1011.7 973.4 +7.1

 

Местоположение метеостанции Нелькан (Хабаровский край, Россия): широта 57.65 долгота 136.10 высота над уровнем моря 318 м.

В архиве по умолчанию представлена погода в Нелькане за последнюю неделю. Архивные данные за месяц целиком и за предыдущие месяцы, начиная с января 2011 года, Вы можете получить, выбрав интересующий диапазон дат из раскрывающегося списка и нажав кнопку "Ввод!".


*Определитесь, кто Вы:
робот инопланетянин человек

Внимание! Время в таблицах - всемирное. Для получения местного времени необходимо прибавить поправку, которая равна 10 ч.

Смотрите также архив погоды в соседних городах и на ближайших метеорологических станциях:

Погода в Усть-Юдоме (Якутия, Россия) (180 км)
Погода в Аяне (Хабаровский край, Россия) (180 км)
Погода в Югоренке (Якутия, Россия) (251 км)
Погода в Джане (Хабаровский край, Россия) (277 км)
Погода в Усть-Миле (Якутия, Россия) (284 км)
Погода в Чюльбю (Якутия, Россия) (309 км)
Погода в Усть-Мае (Якутия, Россия) (316 км)
Погода в Большом Шантаре (Хабаровский край, Россия) (325 км)
Погода в Чумикане (Хабаровский край, Россия) (330 км)
Погода в Токо (Якутия, Россия) (339 км)

Пояснения к столбцам:

Ветер - указаны скорость ветра в м/с - средняя за 10 мин, порывы в срок и между сроками (в фигурных скобках) и направление, откуда дует ветер: С - северный, СВ - северо-восточный, В - восточный, ЮВ - юго-восточный, Ю - южный, ЮЗ - юго-западный, З - западный, СЗ - северо-западный.
Видимость - горизонтальная дальность видимости в метрах или километрах. При видимости от 1 до 10 км при отсутствии осадков обычно наблюдается дымка, при ухудшении видимости до 1 км и менее - туман. В сухую погоду видимость может ухудшаться дымом, пылью или мглою.
Явления - указаны атмосферные явления, наблюдавшиеся в срок или в последний час перед сроком; фигурными скобками обозначены явления, наблюдавшиеся между сроками (за 1-3 часа до срока); квадратными скобками обозначены град или гололедные отложения с указанием их диаметра в мм.
Облачность - указаны через наклонную черту общая и нижняя облачность в баллах и высота нижней границы облаков в метрах; квадратными скобками обозначены формы облаков: Ci - перистые, Cs - перисто-слоистые, Cc - перисто-кучевые, Ac - высококучевые, As - высокослоистые, Sc - слоисто-кучевые, Ns - слоисто-дождевые, Cu - кучевые, Cb - кучево-дождевые. Подробнее классификацию облаков см. в Атласе облаков (PDF).
T - Температура воздуха - температура, измеренная на высоте 2 м над землей.
Td - Температура точки росы - температура, при понижении до которой содержащийся в воздухе водяной пар достигнет насыщения.
f - Относительная влажность воздуха - влажноcть воздуха, измеренная на высоте 2 м над землей.
Te - Эффективная температура - температура, которую ощущает одетый по сезону человек в тени. Характеристика душности погоды. При расчете учитывается влияние влажности воздуха и скорости ветра на теплоощущения человека.
Tes - Эффективная температура на солнце - температура, которую ощущает человек, с поправкой на солнечный нагрев. Характеристика знойности погоды. Зависит от высоты солнца над горизонтом, облачности и скорости ветра. Ночью, в пасмурную погоду, а также при ветре 12 м/с и более поправка равна нулю.
P - Атмосферное давление - приведенное к уровню моря атмосферное давление.
Po - Атмосферное давление - измеренное на уровне метеостанции атмосферное давление.
Tmin - Минимальная температура - минимум температуры воздуха на высоте 2 м над землей.
Tmax - Максимальная температура - максимум температуры воздуха на высоте 2 м над землей.
R - Количество осадков - Количество выпавших осадков за период времени, мм. При наведении курсора мыши на число - период времени, за который выпало указанное количество осадков.
R24 - Количество осадков - Количество выпавших осадков за 24 часа, мм.
S - Снежный покров - Высота снежного покрова, см. При наведении курсора мыши на число - состояние снежного покрова и степень покрытия местности в баллах.